User: anonymous   Login
Location: Columbia
(38.9520°N, 92.3340°W)
Time: 20:56:59
(UTC-05:00)
Language:

CZ-2C R/B - Orbit

View from above orbital plane
View from above orbital plane
View from above satellite
View from above satellite

Ground track
Ground track

The orbit data is extracted from the following two-line orbital elements,

1 28480U 04046B   15146.41669802  .00000068  00000-0  42003-4 0  9996
2 28480 098.1371 281.8926 0141038 287.2088 138.4174 14.25500637546984
Epoch (UTC): 26 May 2015 10:00:02
Eccentricity: 0.0141038
inclination: 98.1371°
perigee height: 705 km
apogee height: 908 km
right ascension of ascending node: 281.8926°
argument of perigee: 287.2088°
revolutions per day: 14.25500637
mean anomaly at epoch: 138.4174°
orbit number at epoch: 54698

The dashed part of the orbit path shows where the satellite is in the earth's shadow,  

DLR